Weather History for KIMT - March, 2013

Change the Weather History Date:

Tuesday, March 5, 2013

  Actual Average Record
Temperature  
Mean Temperature 23 °F -  
Max Temperature 30 °F 33 °F 53 °F (1942)
Min Temperature 16 °F 13 °F -21 °F (1948)
Degree Days  
Heating Degree Days 42    
Moisture  
Dew Point 16 °F    
Average Humidity 72    
Maximum Humidity 85    
Minimum Humidity 49    
Precipitation  
Precipitation 0.00 in - - ()
Sea Level Pressure  
Sea Level Pressure 30.11 in    
Wind  
Wind Speed 8 mph (NNE)    
Max Wind Speed 17 mph    
Max Gust Speed 22 mph    
Visibility 10 miles    
Events      
Averages and records for this station are not official NWS values.
T = Trace of Precipitation, MM = Missing Value Source: NWS Daily Summary

Daily Weather History Graph

Daily Weather History Graph

Search for Another Location

Airport or City:

Trip Planner

Search our weather history database for the weather conditions in past years. The results will help you decide how hot, cold, wet, or windy it might be!

Date:

Astronomy

Mar. 05, 2013 Rise Set
Actual Time 6:23 AM CST 5:45 PM CST
Civil Twilight 5:53 AM CST 6:14 PM CST
Nautical Twilight 5:19 AM CST 6:49 PM CST
Astronomical Twilight 4:44 AM CST 7:24 PM CST
Moon 1:49 AM CST (3/5) 11:09 AM CST (3/5)
Length of Visible Light 12h 21m
Length of Day
11h 21m
Last Quarter, 40% of the Moon is Illuminated
Mar 5
Last Quarter
Mar 11
New
Mar 19
First Quarter
Mar 27
Full
Apr 2
Last Quarter

Hourly Weather History & Observations

Time (CST) Temp. Windchill Dew Point Humidity Pressure Visibility Wind Dir Wind Speed Gust Speed Precip Events Conditions
1:54 AM 16.0 °F 7.4 °F 12.0 °F 84% 30.16 in 10.0 mi NNW 5.8 mph - N/A   Partly Cloudy
2:54 AM 17.1 °F 8.7 °F 12.9 °F 84% 30.15 in 10.0 mi NNW 5.8 mph - N/A   Scattered Clouds
3:54 AM 19.0 °F 12.3 °F 14.0 °F 81% 30.13 in 10.0 mi NNW 4.6 mph - N/A   Overcast
4:54 AM 21.0 °F 14.6 °F 10.9 °F 65% 30.13 in 10.0 mi ENE 4.6 mph - N/A   Overcast
5:54 AM 19.9 °F 12.1 °F 10.0 °F 65% 30.12 in 10.0 mi ENE 5.8 mph - N/A   Overcast
8:54 AM 23.0 °F 15.8 °F 12.9 °F 65% 30.11 in 10.0 mi East 5.8 mph - N/A   Mostly Cloudy
9:54 AM 25.0 °F 15.5 °F 12.9 °F 60% 30.11 in 10.0 mi NE 9.2 mph - N/A   Mostly Cloudy
10:54 AM 26.1 °F 18.4 °F 10.0 °F 51% 30.11 in 10.0 mi East 6.9 mph - N/A   Overcast
11:54 AM 27.0 °F 20.5 °F 10.0 °F 49% 30.11 in 10.0 mi ESE 5.8 mph - N/A   Mostly Cloudy
12:54 PM 30.0 °F 21.1 °F 15.1 °F 54% 30.09 in 10.0 mi North 10.4 mph - N/A   Partly Cloudy
1:54 PM 28.9 °F 18.2 °F 18.0 °F 64% 30.08 in 10.0 mi North 13.8 mph - N/A   Scattered Clouds
2:54 PM 28.9 °F 19.8 °F 18.0 °F 64% 30.07 in 10.0 mi NNE 10.4 mph 18.4 mph N/A   Scattered Clouds
3:29 PM 28.4 °F 17.0 °F 17.6 °F 64% 30.01 in 10.0 mi North 15.0 mph - N/A   Overcast
3:54 PM 27.0 °F 14.7 °F 19.0 °F 72% 30.08 in 10.0 mi NNE 16.1 mph - N/A   Overcast
4:54 PM 26.1 °F 13.1 °F 19.0 °F 75% 30.09 in 10.0 mi North 17.3 mph 21.9 mph N/A   Overcast
5:54 PM 25.0 °F 15.5 °F 19.0 °F 78% 30.12 in 10.0 mi North 9.2 mph - N/A   Overcast
6:33 PM 24.8 °F 14.6 °F 19.4 °F 80% 30.07 in 10.0 mi NNE 10.4 mph - N/A   Overcast
6:54 PM 25.0 °F 15.5 °F 19.9 °F 81% 30.14 in 10.0 mi North 9.2 mph 17.3 mph N/A   Overcast
7:54 PM 24.1 °F 12.5 °F 19.9 °F 84% 30.15 in 10.0 mi North 12.7 mph 21.9 mph N/A   Overcast
8:54 PM 24.1 °F 14.4 °F 19.9 °F 84% 30.16 in 10.0 mi North 9.2 mph - N/A   Overcast
9:54 PM 25.0 °F 16.3 °F 19.9 °F 81% 30.15 in 10.0 mi North 8.1 mph - N/A   Overcast
10:43 PM 24.8 °F 16.1 °F 19.4 °F 80% 30.10 in 10.0 mi NNW 8.1 mph - N/A   Overcast
10:54 PM 25.0 °F 16.3 °F 19.9 °F 81% 30.16 in 10.0 mi NNW 8.1 mph - N/A   Overcast
11:54 PM 25.0 °F 16.3 °F 21.0 °F 85% 30.15 in 10.0 mi NNW 8.1 mph - N/A   Overcast